Weather History for Minamitorishima, Japan

Change the Weather History Date:

Sunday, January 26, 2014

  Actual Average Record
Temperature  
Mean Temperature 67 °F -  
Max Temperature 70 °F - - ()
Min Temperature 64 °F - - ()
Cooling Degree Days 2    
Growing Degree Days 17 (Base 50)    
Moisture  
Dew Point 64 °F    
Average Humidity 84    
Maximum Humidity 92    
Minimum Humidity 77    
Precipitation  
Precipitation 0.63 in - - ()
Sea Level Pressure  
Sea Level Pressure 29.93 in    
Wind  
Wind Speed 20 mph ()    
Max Wind Speed 30 mph    
Max Gust Speed -    
T = Trace of Precipitation, MM = Missing Value Source: Averaged Metar Reports

Daily Weather History Graph

Daily Weather History Graph

Search for Another Location

Airport:

Trip Planner

Search our weather history database for the weather conditions in past years. The results will help you decide how hot, cold, wet, or windy it might be!

Date:

Astronomy

Jan. 26, 2014 Rise Set
Actual Time 6:28 AM ChST 5:25 PM ChST
Civil Twilight 6:04 AM ChST 5:49 PM ChST
Nautical Twilight 5:36 AM ChST 6:16 PM ChST
Astronomical Twilight 5:09 AM ChST 6:43 PM ChST
Moon 1:22 AM ChST (1/26) 12:41 PM ChST (1/26)
Length of Visible Light 11h 45m
Length of Day
10h 57m
Waning Crescent, 30% of the Moon is Illuminated
Jan 26
Waning Crescent
Jan 31
New
Feb 7
First Quarter
Feb 15
Full
Feb 23
Last Quarter

Hourly Weather History & Observations

Time (ChST) Temp. Dew Point Humidity Pressure Visibility Wind Dir Wind Speed Gust Speed Precip Events Conditions
12:00 AM 66 °F 61 °F 80% 29.99 in - ENE 21.9 mph - -  
1:00 AM 66 °F 63 °F 85% 29.98 in - East 20.7 mph - -  
2:00 AM 65 °F 61 °F 83% 29.97 in - East 25.3 mph - -  
3:00 AM 67 °F 62 °F 77% 29.97 in - East 20.7 mph - -  
4:00 AM 66 °F 61 °F 79% 29.93 in - East 26.5 mph - -  
5:00 AM 66 °F 61 °F 78% 29.94 in - East 25.3 mph - -  
6:00 AM 65 °F 62 °F 87% 29.97 in - ENE 20.7 mph - -  
7:00 AM 66 °F 62 °F 82% 29.95 in - East 28.8 mph - -  
8:00 AM 67 °F 63 °F 81% 29.98 in - East 26.5 mph - -  
9:00 AM 68 °F 63 °F 80% 30.02 in - East 17.3 mph - -  
10:00 AM 66 °F 64 °F 89% 30.00 in - East 29.9 mph - -  
11:00 AM 68 °F 64 °F 84% 29.97 in - East 25.3 mph - -  
12:00 PM 69 °F 65 °F 83% 29.94 in - ESE 18.4 mph - -  
1:00 PM 67 °F 65 °F 92% 29.91 in - ESE 24.2 mph - -  
2:00 PM 68 °F 65 °F 86% 29.88 in - ESE 26.5 mph - -  
3:00 PM 69 °F 65 °F 84% 29.87 in - ESE 23.0 mph - -  
4:00 PM 68 °F 64 °F 83% 29.87 in - ESE 20.7 mph - -  
5:00 PM 69 °F 65 °F 84% 29.87 in - SE 16.1 mph - -  
6:00 PM 70 °F 67 °F 88% 29.86 in - SE 15.0 mph - -  
7:00 PM 69 °F 67 °F 89% 29.88 in - SE 18.4 mph - -  
8:00 PM 70 °F 67 °F 87% 29.88 in - ESE 20.7 mph - -  
9:00 PM 69 °F 65 °F 84% 29.87 in - ESE 19.6 mph - -  
10:00 PM 70 °F 66 °F 82% 29.87 in - ESE 19.6 mph - -  
11:00 PM 70 °F 66 °F 83% 29.88 in - SE 19.6 mph - -